Location: LDNL
(36.4545°S, 141.6685°E)
Time: 11:30:31
(UTC+10:00)

Vanguard 3 - Pass Details

Date: 28 January 2022
Orbit: 508 x 3258 km, 33.3° (Epoch: 25 May)

Event Time Altitude Azimuth Distance (km) Brightness Sun altitude
Rises 09:21:15 0° 264° (W) 6,862 11.3 29.6°
Reaches altitude 10° 09:28:13 10° 280° (W) 6,100 11.2 31.0°
Maximum altitude 09:38:47 17° 313° (NW) 5,553 11.2 33.1°
Drops below altitude 10° 09:49:11 10° 347° (NNW) 5,897 11.5 35.2°
Sets 09:55:55 0° 4° (N) 6,539 11.9 36.6°
